^^
Your Local Weather - Clay, NY Station Historical Data
Daily Summary for October 27, 2017 Units:  English    Metric   Both
« Previous Day
Next Day »
Daily Weekly Monthly Yearly Custom
  High: Low: Average:
Temperature: 62.5 °F 36.8 °F 50.6 °F
Dew Point: 41.0 °F 30.9 °F 37.3 °F
Humidity: 91% 34% 63%
Wind Speed: 6.0mph 0.0mph 1.7mph
Wind Gust: 9.0mph - -
Wind- - South
Pressure: 29.98 in 29.83 in -
Precipitation: 0.00 in    
Historical Graphs
 
 
Tabular Data for October 27, 2017
Time Temperature Dew Point Pressure Wind Wind Speed Wind Gust Humidity Rainfall Rate (Hourly) solar
00:02 46.7 °F 36.7 °F 29.83 in WSW 1.0 mph 3.0 mph 68% 0.00 in 0 W/m2
00:08 46.6 °F 36.6 °F 29.83 in WSW 1.0 mph 3.0 mph 68% 0.00 in 0 W/m2
00:14 46.6 °F 37.0 °F 29.83 in WSW 1.0 mph 5.0 mph 69% 0.00 in 0 W/m2
00:20 46.5 °F 36.9 °F 29.84 in SW 2.0 mph 4.0 mph 69% 0.00 in 0 W/m2
00:26 46.3 °F 37.0 °F 29.84 in WSW 3.0 mph 4.0 mph 70% 0.00 in 0 W/m2
00:32 45.9 °F 37.4 °F 29.84 in SW 3.0 mph 8.0 mph 72% 0.00 in 0 W/m2
00:38 45.7 °F 37.5 °F 29.84 in SW 3.0 mph 8.0 mph 73% 0.00 in 0 W/m2
00:44 45.5 °F 37.7 °F 29.84 in SW 2.0 mph 3.0 mph 74% 0.00 in 0 W/m2
00:50 45.4 °F 37.6 °F 29.84 in SSW 2.0 mph 2.0 mph 74% 0.00 in 0 W/m2
00:56 45.4 °F 37.9 °F 29.85 in SW 3.0 mph 3.0 mph 75% 0.00 in 0 W/m2
01:02 45.3 °F 37.8 °F 29.85 in SW 2.0 mph 4.0 mph 75% 0.00 in 0 W/m2
01:08 45.2 °F 38.1 °F 29.85 in WSW 3.0 mph 5.0 mph 76% 0.00 in 0 W/m2
01:14 45.0 °F 38.2 °F 29.85 in WSW 3.0 mph 3.0 mph 77% 0.00 in 0 W/m2
01:20 44.8 °F 38.4 °F 29.85 in SW 2.0 mph 4.0 mph 78% 0.00 in 0 W/m2
01:26 44.5 °F 38.4 °F 29.85 in WSW 3.0 mph 4.0 mph 79% 0.00 in 0 W/m2
01:32 44.3 °F 38.8 °F 29.85 in West 2.0 mph 4.0 mph 81% 0.00 in 0 W/m2
01:38 44.1 °F 39.0 °F 29.86 in WSW 3.0 mph 4.0 mph 82% 0.00 in 0 W/m2
01:44 43.9 °F 38.8 °F 29.86 in WSW 2.0 mph 3.0 mph 82% 0.00 in 0 W/m2
01:50 43.9 °F 39.1 °F 29.86 in WSW 2.0 mph 2.0 mph 83% 0.00 in 0 W/m2
01:56 43.9 °F 39.1 °F 29.86 in SW 2.0 mph 3.0 mph 83% 0.00 in 0 W/m2
02:02 44.0 °F 39.5 °F 29.86 in WSW 2.0 mph 2.0 mph 84% 0.00 in 0 W/m2
02:08 44.0 °F 39.5 °F 29.86 in Calm   2.0 mph 84% 0.00 in 0 W/m2
02:14 44.0 °F 39.5 °F 29.86 in WSW 1.0 mph 2.0 mph 84% 0.00 in 0 W/m2
02:20 43.9 °F 39.4 °F 29.87 in WSW 1.0 mph 2.0 mph 84% 0.00 in 0 W/m2
02:26 43.9 °F 39.4 °F 29.87 in WSW 1.0 mph 3.0 mph 84% 0.00 in 0 W/m2
02:32 43.9 °F 39.4 °F 29.88 in WSW 1.0 mph 2.0 mph 84% 0.00 in 0 W/m2
02:38 43.9 °F 39.4 °F 29.88 in WSW 1.0 mph 4.0 mph 84% 0.00 in 0 W/m2
02:44 44.0 °F 39.5 °F 29.88 in WSW 1.0 mph 3.0 mph 84% 0.00 in 0 W/m2
02:50 44.1 °F 39.3 °F 29.88 in WSW 1.0 mph 1.0 mph 83% 0.00 in 0 W/m2
02:56 44.2 °F 39.4 °F 29.88 in WSW 1.0 mph 1.0 mph 83% 0.00 in 0 W/m2
03:02 44.3 °F 39.2 °F 29.89 in WSW 1.0 mph 2.0 mph 82% 0.00 in 0 W/m2
03:08 44.3 °F 39.2 °F 29.89 in WSW 2.0 mph 3.0 mph 82% 0.00 in 0 W/m2
03:14 44.4 °F 38.9 °F 29.89 in WSW 2.0 mph 2.0 mph 81% 0.00 in 0 W/m2
03:20 44.4 °F 38.9 °F 29.89 in WSW 1.0 mph 2.0 mph 81% 0.00 in 0 W/m2
03:26 44.3 °F 38.5 °F 29.89 in WSW 1.0 mph 2.0 mph 80% 0.00 in 0 W/m2
03:32 44.0 °F 37.9 °F 29.90 in WSW 1.0 mph 4.0 mph 79% 0.00 in 0 W/m2
03:38 43.8 °F 37.7 °F 29.90 in WSW 2.0 mph 4.0 mph 79% 0.00 in 0 W/m2
03:44 43.5 °F 37.4 °F 29.90 in WSW 1.0 mph 2.0 mph 79% 0.00 in 0 W/m2
03:50 43.3 °F 36.9 °F 29.90 in WSW 2.0 mph 5.0 mph 78% 0.00 in 0 W/m2
03:56 43.1 °F 36.7 °F 29.90 in WSW 2.0 mph 5.0 mph 78% 0.00 in 0 W/m2
04:02 42.9 °F 36.5 °F 29.90 in SW 2.0 mph 5.0 mph 78% 0.00 in 0 W/m2
04:08 42.7 °F 36.3 °F 29.90 in SW 1.0 mph 5.0 mph 78% 0.00 in 0 W/m2
04:14 42.7 °F 36.3 °F 29.91 in SW 1.0 mph 2.0 mph 78% 0.00 in 0 W/m2
04:20 42.5 °F 36.1 °F 29.91 in SW 1.0 mph 1.0 mph 78% 0.00 in 0 W/m2
04:26 42.4 °F 36.3 °F 29.92 in SW 1.0 mph 1.0 mph 79% 0.00 in 0 W/m2
04:32 42.4 °F 36.3 °F 29.92 in Calm   1.0 mph 79% 0.00 in 0 W/m2
04:38 42.5 °F 36.4 °F 29.92 in SW 1.0 mph 1.0 mph 79% 0.00 in 0 W/m2
04:50 42.3 °F 36.3 °F 29.92 in Calm     79% 0.00 in 0 W/m2
04:56 42.2 °F 36.2 °F 29.92 in Calm   1.0 mph 79% 0.00 in 0 W/m2
05:02 41.9 °F 35.9 °F 29.93 in Calm     79% 0.00 in 0 W/m2
05:08 41.7 °F 35.7 °F 29.93 in Calm     79% 0.00 in 0 W/m2
05:14 41.4 °F 35.7 °F 29.93 in Calm     80% 0.00 in 0 W/m2
05:20 41.2 °F 35.5 °F 29.93 in Calm     80% 0.00 in 0 W/m2
05:26 41.1 °F 35.7 °F 29.93 in Calm   2.0 mph 81% 0.00 in 0 W/m2
05:32 41.2 °F 35.8 °F 29.94 in Calm     81% 0.00 in 0 W/m2
05:38 41.2 °F 35.8 °F 29.94 in Calm     81% 0.00 in 0 W/m2
05:46 41.2 °F 35.8 °F 29.94 in Calm     81% 0.00 in 0 W/m2
05:52 41.0 °F 35.6 °F 29.95 in Calm     81% 0.00 in 0 W/m2
05:58 40.9 °F 35.8 °F 29.95 in Calm     82% 0.00 in 0 W/m2
06:04 40.6 °F 35.5 °F 29.95 in Calm     82% 0.00 in 0 W/m2
06:10 40.4 °F 35.6 °F 29.95 in Calm     83% 0.00 in 0 W/m2
06:16 40.2 °F 35.4 °F 29.95 in Calm     83% 0.00 in 0 W/m2
06:22 39.9 °F 35.2 °F 29.96 in Calm     83% 0.00 in 0 W/m2
06:28 39.8 °F 35.4 °F 29.95 in Calm     84% 0.00 in 0 W/m2
06:34 39.8 °F 35.4 °F 29.96 in Calm     84% 0.00 in 0 W/m2
06:40 39.8 °F 35.4 °F 29.96 in Calm     84% 0.00 in 0 W/m2
06:46 39.7 °F 35.3 °F 29.96 in Calm     84% 0.00 in 0 W/m2
06:52 39.5 °F 35.4 °F 29.95 in Calm     85% 0.00 in 0 W/m2
06:58 39.3 °F 35.5 °F 29.95 in Calm     86% 0.00 in 0 W/m2
07:04 39.0 °F 35.2 °F 29.95 in Calm     86% 0.00 in 0 W/m2
07:10 38.6 °F 35.1 °F 29.95 in Calm     87% 0.00 in 0 W/m2
07:16 38.2 °F 34.7 °F 29.96 in Calm     87% 0.00 in 0 W/m2
07:22 37.9 °F 34.4 °F 29.96 in Calm     87% 0.00 in 0 W/m2
07:28 37.7 °F 34.5 °F 29.96 in Calm     88% 0.00 in 0 W/m2
07:34 37.4 °F 34.2 °F 29.96 in Calm     88% 0.00 in 5 W/m2
07:40 37.3 °F 34.1 °F 29.96 in Calm     88% 0.00 in 9 W/m2
07:46 37.1 °F 33.9 °F 29.96 in Calm     88% 0.00 in 11 W/m2
07:52 36.9 °F 34.0 °F 29.97 in Calm     89% 0.00 in 16 W/m2
07:58 36.8 °F 33.9 °F 29.97 in Calm     89% 0.00 in 19 W/m2
08:06 37.0 °F 34.1 °F 29.97 in Calm     89% 0.00 in 25 W/m2
08:12 37.5 °F 34.8 °F 29.98 in Calm     90% 0.00 in 30 W/m2
08:18 37.8 °F 35.1 °F 29.98 in Calm     90% 0.00 in 35 W/m2
08:24 38.2 °F 35.5 °F 29.98 in Calm     90% 0.00 in 47 W/m2
08:30 38.6 °F 35.9 °F 29.98 in Calm     90% 0.00 in 53 W/m2
08:36 39.3 °F 36.9 °F 29.98 in Calm     91% 0.00 in 105 W/m2
08:42 40.5 °F 38.1 °F 29.98 in Calm     91% 0.00 in 74 W/m2
08:48 41.7 °F 38.7 °F 29.98 in SW 1.0 mph 3.0 mph 89% 0.00 in 141 W/m2
08:54 42.9 °F 39.3 °F 29.98 in SW 2.0 mph 5.0 mph 87% 0.00 in 190 W/m2
09:00 44.0 °F 39.5 °F 29.98 in SW 2.0 mph 2.0 mph 84% 0.00 in 174 W/m2
09:06 45.0 °F 39.2 °F 29.98 in SSW 2.0 mph 4.0 mph 80% 0.00 in 221 W/m2
09:12 45.8 °F 39.0 °F 29.98 in SSW 2.0 mph 2.0 mph 77% 0.00 in 204 W/m2
09:18 46.4 °F 38.9 °F 29.98 in SSW 2.0 mph 3.0 mph 75% 0.00 in 206 W/m2
09:24 46.7 °F 38.5 °F 29.98 in SSW 2.0 mph 2.0 mph 73% 0.00 in 192 W/m2
09:30 47.1 °F 38.2 °F 29.98 in South 2.0 mph 4.0 mph 71% 0.00 in 278 W/m2
09:36 47.6 °F 38.3 °F 29.98 in SSW 3.0 mph 4.0 mph 70% 0.00 in 309 W/m2
09:42 48.1 °F 38.8 °F 29.98 in SSE 2.0 mph 4.0 mph 70% 0.00 in 313 W/m2
09:48 48.4 °F 38.7 °F 29.98 in South 2.0 mph 4.0 mph 69% 0.00 in 345 W/m2
09:54 49.0 °F 38.5 °F 29.98 in SSE 3.0 mph 4.0 mph 67% 0.00 in 380 W/m2
10:00 49.2 °F 38.3 °F 29.98 in SSE 3.0 mph 4.0 mph 66% 0.00 in 388 W/m2
10:06 49.6 °F 38.7 °F 29.98 in SSE 3.0 mph 4.0 mph 66% 0.00 in 287 W/m2
10:12 49.9 °F 39.4 °F 29.98 in SSE 2.0 mph 2.0 mph 67% 0.00 in 315 W/m2
10:18 50.3 °F 39.4 °F 29.98 in SSE 2.0 mph 6.0 mph 66% 0.00 in 394 W/m2
10:24 50.5 °F 38.4 °F 29.98 in South 2.0 mph 6.0 mph 63% 0.00 in 334 W/m2
10:30 50.8 °F 38.2 °F 29.98 in SE 2.0 mph 2.0 mph 62% 0.00 in 367 W/m2
10:36 50.8 °F 38.7 °F 29.98 in South 2.0 mph 3.0 mph 63% 0.00 in 329 W/m2
10:42 50.9 °F 38.3 °F 29.98 in SSE 2.0 mph 3.0 mph 62% 0.00 in 278 W/m2
10:48 50.8 °F 38.7 °F 29.98 in East 2.0 mph 3.0 mph 63% 0.00 in 292 W/m2
10:54 51.0 °F 38.8 °F 29.98 in East 2.0 mph 3.0 mph 63% 0.00 in 325 W/m2
11:00 51.6 °F 39.0 °F 29.98 in SSE 2.0 mph 2.0 mph 62% 0.00 in 309 W/m2
11:06 52.1 °F 38.6 °F 29.97 in SE 3.0 mph 4.0 mph 60% 0.00 in 404 W/m2
11:12 52.3 °F 39.2 °F 29.97 in SE 3.0 mph 4.0 mph 61% 0.00 in 390 W/m2
11:18 52.9 °F 41.0 °F 29.97 in ESE 3.0 mph 4.0 mph 64% 0.00 in 443 W/m2
11:24 53.3 °F 39.8 °F 29.97 in ENE 2.0 mph 5.0 mph 60% 0.00 in 478 W/m2
11:30 53.8 °F 40.2 °F 29.97 in ESE 3.0 mph 5.0 mph 60% 0.00 in 466 W/m2
11:36 54.2 °F 39.3 °F 29.97 in South 3.0 mph 5.0 mph 57% 0.00 in 476 W/m2
11:42 54.4 °F 39.9 °F 29.97 in South 3.0 mph 4.0 mph 58% 0.00 in 457 W/m2
11:48 54.9 °F 39.0 °F 29.96 in SE 3.0 mph 4.0 mph 55% 0.00 in 404 W/m2
11:54 54.8 °F 39.4 °F 29.96 in East 3.0 mph 3.0 mph 56% 0.00 in 325 W/m2
12:00 54.6 °F 38.3 °F 29.96 in SE 3.0 mph 3.0 mph 54% 0.00 in 285 W/m2
12:06 54.8 °F 39.4 °F 29.96 in ESE 2.0 mph 3.0 mph 56% 0.00 in 315 W/m2
12:12 55.1 °F 38.3 °F 29.95 in SSE 1.0 mph 2.0 mph 53% 0.00 in 288 W/m2
12:18 55.4 °F 39.5 °F 29.95 in SSE 2.0 mph 4.0 mph 55% 0.00 in 499 W/m2
12:24 56.1 °F 40.1 °F 29.95 in SE 2.0 mph 2.0 mph 55% 0.00 in 619 W/m2
12:30 56.8 °F 39.4 °F 29.95 in SSE 2.0 mph 7.0 mph 52% 0.00 in 526 W/m2
12:36 57.2 °F 40.2 °F 29.94 in ESE 3.0 mph 7.0 mph 53% 0.00 in 601 W/m2
12:42 57.8 °F 38.2 °F 29.93 in SSW 3.0 mph 7.0 mph 48% 0.00 in 629 W/m2
12:48 58.6 °F 39.5 °F 29.93 in South 3.0 mph 7.0 mph 49% 0.00 in 631 W/m2
12:54 58.9 °F 38.1 °F 29.93 in SSE 3.0 mph 8.0 mph 46% 0.00 in 599 W/m2
13:00 59.0 °F 37.1 °F 29.93 in SSE 4.0 mph 6.0 mph 44% 0.00 in 547 W/m2
13:06 58.9 °F 37.0 °F 29.93 in SSE 4.0 mph 6.0 mph 44% 0.00 in 513 W/m2
13:12 59.3 °F 30.9 °F 29.93 in SSW 5.0 mph 9.0 mph 34% 0.00 in 496 W/m2
13:18 59.7 °F 32.7 °F 29.92 in SSW 5.0 mph 9.0 mph 36% 0.00 in 636 W/m2
13:24 58.7 °F 31.1 °F 29.92 in SE 6.0 mph 9.0 mph 35% 0.00 in 283 W/m2
13:30 58.6 °F 32.4 °F 29.92 in SSW 6.0 mph 6.0 mph 37% 0.00 in 248 W/m2
13:36 58.9 °F 34.0 °F 29.92 in SSE 5.0 mph 7.0 mph 39% 0.00 in 357 W/m2
13:42 59.2 °F 32.2 °F 29.92 in SW 4.0 mph 4.0 mph 36% 0.00 in 490 W/m2
13:48 59.8 °F 34.8 °F 29.91 in SE 4.0 mph 5.0 mph 39% 0.00 in 571 W/m2
13:54 60.9 °F 35.8 °F 29.91 in SSE 3.0 mph 4.0 mph 39% 0.00 in 529 W/m2
14:00 61.1 °F 33.9 °F 29.90 in SSE 3.0 mph 3.0 mph 36% 0.00 in 571 W/m2
14:06 61.0 °F 35.8 °F 29.90 in SSE 3.0 mph 4.0 mph 39% 0.00 in 538 W/m2
14:12 61.4 °F 34.2 °F 29.90 in SSW 2.0 mph 4.0 mph 36% 0.00 in 591 W/m2
14:18 61.0 °F 34.5 °F 29.90 in SSE 3.0 mph 5.0 mph 37% 0.00 in 267 W/m2
14:24 60.8 °F 34.3 °F 29.90 in SSE 4.0 mph 4.0 mph 37% 0.00 in 334 W/m2
14:30 61.7 °F 34.5 °F 29.90 in South 4.0 mph 5.0 mph 36% 0.00 in 283 W/m2
14:36 61.4 °F 36.2 °F 29.90 in SE 5.0 mph 5.0 mph 39% 0.00 in 424 W/m2
14:42 61.1 °F 34.6 °F 29.89 in East 4.0 mph 6.0 mph 37% 0.00 in 455 W/m2
14:48 60.5 °F 35.4 °F 29.89 in South 5.0 mph 6.0 mph 39% 0.00 in 410 W/m2
14:54 60.7 °F 35.6 °F 29.88 in ESE 6.0 mph 7.0 mph 39% 0.00 in 448 W/m2
15:00 60.7 °F 35.6 °F 29.88 in SSE 6.0 mph 6.0 mph 39% 0.00 in 431 W/m2
15:06 60.9 °F 34.4 °F 29.88 in South 5.0 mph 9.0 mph 37% 0.00 in 334 W/m2
15:12 61.3 °F 36.1 °F 29.88 in SSW 4.0 mph 7.0 mph 39% 0.00 in 394 W/m2
15:18 61.1 °F 34.6 °F 29.88 in SE 4.0 mph 8.0 mph 37% 0.00 in 318 W/m2
15:24 61.2 °F 36.0 °F 29.88 in East 5.0 mph 5.0 mph 39% 0.00 in 380 W/m2
15:30 61.8 °F 37.2 °F 29.88 in SSE 3.0 mph 3.0 mph 40% 0.00 in 343 W/m2
15:36 61.9 °F 37.3 °F 29.88 in ESE 4.0 mph 5.0 mph 40% 0.00 in 338 W/m2
15:42 61.9 °F 36.0 °F 29.88 in SE 4.0 mph 4.0 mph 38% 0.00 in 267 W/m2
15:48 61.9 °F 36.7 °F 29.88 in SSE 4.0 mph 4.0 mph 39% 0.00 in 243 W/m2
15:54 61.9 °F 35.3 °F 29.87 in SE 4.0 mph 5.0 mph 37% 0.00 in 292 W/m2
16:00 62.1 °F 35.5 °F 29.87 in SE 4.0 mph 4.0 mph 37% 0.00 in 309 W/m2
16:06 62.2 °F 35.6 °F 29.87 in SSE 5.0 mph 6.0 mph 37% 0.00 in 236 W/m2
16:12 62.1 °F 36.8 °F 29.87 in SSE 4.0 mph 4.0 mph 39% 0.00 in 250 W/m2
16:18 62.3 °F 35.7 °F 29.87 in SSE 3.0 mph 4.0 mph 37% 0.00 in 211 W/m2
16:24 62.3 °F 35.7 °F 29.87 in SE 2.0 mph 3.0 mph 37% 0.00 in 188 W/m2
16:30 62.4 °F 35.8 °F 29.87 in ESE 2.0 mph 3.0 mph 37% 0.00 in 171 W/m2
16:36 62.3 °F 38.3 °F 29.87 in SE 3.0 mph 3.0 mph 41% 0.00 in 218 W/m2
16:42 62.3 °F 36.4 °F 29.87 in SE 3.0 mph 3.0 mph 38% 0.00 in 183 W/m2
16:48 62.5 °F 36.5 °F 29.87 in SE 4.0 mph 6.0 mph 38% 0.00 in 77 W/m2
16:54 62.4 °F 36.4 °F 29.87 in East 4.0 mph 4.0 mph 38% 0.00 in 69 W/m2
17:00 62.2 °F 37.6 °F 29.86 in SE 4.0 mph 6.0 mph 40% 0.00 in 58 W/m2
17:06 62.0 °F 37.4 °F 29.86 in ESE 4.0 mph 6.0 mph 40% 0.00 in 49 W/m2
17:12 61.8 °F 37.2 °F 29.86 in ESE 3.0 mph 4.0 mph 40% 0.00 in 42 W/m2
17:18 61.5 °F 36.3 °F 29.86 in East 2.0 mph 4.0 mph 39% 0.00 in 33 W/m2
17:24 61.3 °F 36.8 °F 29.87 in East 2.0 mph 4.0 mph 40% 0.00 in 25 W/m2
17:30 60.9 °F 37.0 °F 29.87 in SSE 2.0 mph 2.0 mph 41% 0.00 in 21 W/m2
17:36 60.4 °F 37.2 °F 29.87 in SSE 1.0 mph 2.0 mph 42% 0.00 in 18 W/m2
17:42 60.2 °F 36.4 °F 29.87 in SE 1.0 mph 1.0 mph 41% 0.00 in 18 W/m2
17:48 59.9 °F 37.3 °F 29.87 in Calm   2.0 mph 43% 0.00 in 14 W/m2
17:54 59.5 °F 37.0 °F 29.87 in Calm     43% 0.00 in 11 W/m2
18:00 58.9 °F 37.6 °F 29.87 in Calm   1.0 mph 45% 0.00 in 5 W/m2
18:06 58.1 °F 38.0 °F 29.87 in Calm   1.0 mph 47% 0.00 in 0 W/m2
18:12 57.4 °F 37.9 °F 29.88 in Calm     48% 0.00 in 0 W/m2
18:18 56.3 °F 39.4 °F 29.88 in Calm     53% 0.00 in 0 W/m2
18:24 55.6 °F 38.7 °F 29.88 in Calm     53% 0.00 in 0 W/m2
18:30 55.1 °F 38.3 °F 29.88 in Calm   2.0 mph 53% 0.00 in 0 W/m2
18:36 54.9 °F 38.1 °F 29.88 in Calm   3.0 mph 53% 0.00 in 0 W/m2
18:42 55.3 °F 38.4 °F 29.88 in SE 1.0 mph 1.0 mph 53% 0.00 in 0 W/m2
18:48 55.7 °F 37.8 °F 29.88 in SE 1.0 mph 1.0 mph 51% 0.00 in 0 W/m2
18:54 55.8 °F 38.4 °F 29.88 in Calm     52% 0.00 in 0 W/m2
19:00 55.2 °F 37.9 °F 29.89 in Calm     52% 0.00 in 0 W/m2
19:06 55.0 °F 37.7 °F 29.89 in Calm     52% 0.00 in 0 W/m2
19:12 54.6 °F 38.7 °F 29.89 in Calm     55% 0.00 in 0 W/m2
19:18 53.9 °F 38.6 °F 29.89 in Calm   1.0 mph 56% 0.00 in 0 W/m2
19:24 53.3 °F 38.4 °F 29.89 in Calm     57% 0.00 in 0 W/m2
19:30 53.2 °F 38.4 °F 29.90 in Calm     57% 0.00 in 0 W/m2
19:36 52.9 °F 39.0 °F 29.90 in Calm     59% 0.00 in 0 W/m2
19:42 53.0 °F 38.6 °F 29.90 in Calm   1.0 mph 58% 0.00 in 0 W/m2
19:48 52.6 °F 38.7 °F 29.90 in Calm   1.0 mph 59% 0.00 in 0 W/m2
19:54 52.3 °F 38.4 °F 29.90 in Calm     59% 0.00 in 0 W/m2
20:00 51.8 °F 38.8 °F 29.90 in Calm     61% 0.00 in 0 W/m2
20:06 51.4 °F 38.8 °F 29.90 in Calm     62% 0.00 in 0 W/m2
20:12 51.0 °F 39.2 °F 29.90 in Calm     64% 0.00 in 0 W/m2
20:24 50.2 °F 38.9 °F 29.90 in Calm     65% 0.00 in 0 W/m2
20:30 49.9 °F 38.6 °F 29.90 in Calm     65% 0.00 in 0 W/m2
20:36 50.0 °F 39.1 °F 29.90 in NNE 1.0 mph 1.0 mph 66% 0.00 in 0 W/m2
20:42 49.9 °F 39.0 °F 29.90 in Calm   1.0 mph 66% 0.00 in 0 W/m2
20:48 49.5 °F 39.7 °F 29.90 in Calm   1.0 mph 69% 0.00 in 0 W/m2
20:54 49.1 °F 39.7 °F 29.91 in Calm     70% 0.00 in 0 W/m2
21:00 48.7 °F 39.7 °F 29.90 in Calm     71% 0.00 in 0 W/m2
21:06 48.6 °F 40.0 °F 29.91 in Calm     72% 0.00 in 0 W/m2
21:12 48.7 °F 39.4 °F 29.91 in Calm     70% 0.00 in 0 W/m2
21:18 49.4 °F 38.9 °F 29.90 in Calm   2.0 mph 67% 0.00 in 0 W/m2
21:24 49.6 °F 38.7 °F 29.91 in Calm   7.0 mph 66% 0.00 in 0 W/m2
21:30 50.4 °F 38.3 °F 29.91 in Calm     63% 0.00 in 0 W/m2
21:36 52.1 °F 38.2 °F 29.90 in South 1.0 mph 4.0 mph 59% 0.00 in 0 W/m2
21:42 53.4 °F 38.5 °F 29.90 in East 2.0 mph 2.0 mph 57% 0.00 in 0 W/m2
21:48 54.6 °F 37.8 °F 29.90 in SE 2.0 mph 4.0 mph 53% 0.00 in 0 W/m2
21:54 54.2 °F 37.9 °F 29.90 in SE 2.0 mph 3.0 mph 54% 0.00 in 0 W/m2
22:00 54.3 °F 37.5 °F 29.90 in SE 1.0 mph 1.0 mph 53% 0.00 in 0 W/m2
22:06 54.5 °F 37.2 °F 29.90 in SSE 1.0 mph 2.0 mph 52% 0.00 in 0 W/m2
22:12 54.7 °F 37.4 °F 29.90 in SW 1.0 mph 3.0 mph 52% 0.00 in 0 W/m2
22:18 55.2 °F 37.4 °F 29.90 in South 2.0 mph 3.0 mph 51% 0.00 in 0 W/m2
22:24 55.5 °F 37.7 °F 29.90 in South 3.0 mph 3.0 mph 51% 0.00 in 0 W/m2
22:30 55.5 °F 37.1 °F 29.90 in SSE 2.0 mph 2.0 mph 50% 0.00 in 0 W/m2
22:36 55.4 °F 37.1 °F 29.90 in SE 2.0 mph 2.0 mph 50% 0.00 in 0 W/m2
22:42 54.7 °F 37.4 °F 29.90 in SE 1.0 mph 5.0 mph 52% 0.00 in 0 W/m2
22:48 55.2 °F 37.4 °F 29.90 in SSE 2.0 mph 5.0 mph 51% 0.00 in 0 W/m2
22:54 55.6 °F 37.2 °F 29.90 in SE 3.0 mph 4.0 mph 50% 0.00 in 0 W/m2
23:00 55.7 °F 37.3 °F 29.90 in SSE 3.0 mph 3.0 mph 50% 0.00 in 0 W/m2
23:06 55.5 °F 37.1 °F 29.90 in SE 3.0 mph 3.0 mph 50% 0.00 in 0 W/m2
23:14 55.0 °F 36.7 °F 29.90 in SSE 2.0 mph 5.0 mph 50% 0.00 in 0 W/m2
23:20 55.0 °F 36.7 °F 29.90 in SSE 2.0 mph 3.0 mph 50% 0.00 in 0 W/m2
23:26 54.0 °F 37.7 °F 29.90 in South 2.0 mph 5.0 mph 54% 0.00 in 0 W/m2
23:32 54.1 °F 37.3 °F 29.89 in SSE 2.0 mph 3.0 mph 53% 0.00 in 0 W/m2
23:38 54.0 °F 36.8 °F 29.89 in ESE 2.0 mph 3.0 mph 52% 0.00 in 0 W/m2
23:44 55.0 °F 36.7 °F 29.88 in SSE 3.0 mph 8.0 mph 50% 0.00 in 0 W/m2
23:46 55.0 °F 36.7 °F 29.88 in SSE 4.0 mph 8.0 mph 50% 0.00 in 0 W/m2
23:50 54.6 °F 36.8 °F 29.88 in SSE 3.0 mph 3.0 mph 51% 0.00 in 0 W/m2
23:56 54.4 °F 38.1 °F 29.88 in ESE 2.0 mph 5.0 mph 54% 0.00 in 0 W/m2
Country Meadow, Clay, NY, USA
Compliments of Weather Underground - 2 mb